| time (UTC) | temp F | wind direction | speed knots | gust knots | rain 1hr in | rain 24hr in | rain mn in | humidity % | barometer mb |
| 20260831060014 | 76 | 135 | 0.0 | 0.0 | 0.00 | 0.02 | 0.00 | 80 | 1011.1 |
| 20260831054519 | 77 | 135 | 0.0 | 0.0 | 0.00 | 0.02 | 0.00 | 80 | 1011.1 |
| 20260831053022 | 77 | 135 | 0.0 | 0.0 | 0.00 | 0.02 | 0.00 | 80 | 1011.0 |
| 20260831051508 | 77 | 135 | 0.0 | 0.0 | 0.00 | 0.02 | 0.00 | 80 | 1010.9 |
| 20260831050031 | 77 | 135 | 0.0 | 0.0 | 0.00 | 0.02 | 0.00 | 81 | 1010.8 |
| 20260831044507 | 77 | 135 | 0.0 | 0.0 | 0.00 | 0.02 | 0.02 | 81 | 1010.8 |
| 20260831043033 | 77 | 135 | 0.0 | 0.0 | 0.00 | 0.02 | 0.02 | 81 | 1010.8 |
| 20260831041534 | 78 | 135 | 0.0 | 0.0 | 0.00 | 0.02 | 0.02 | 81 | 1010.8 |
| 20260831040023 | 78 | 135 | 0.0 | 0.0 | 0.00 | 0.02 | 0.02 | 81 | 1010.8 |
| 20260831034512 | 78 | 135 | 0.0 | 0.0 | 0.00 | 0.02 | 0.02 | 81 | 1010.9 |
| 20260831033019 | 78 | 135 | 0.0 | 0.0 | 0.00 | 0.02 | 0.02 | 81 | 1011.0 |
| 20260831031515 | 78 | 135 | 0.0 | 0.0 | 0.00 | 0.02 | 0.02 | 81 | 1011.0 |
| 20260831030025 | 79 | 135 | 0.0 | 0.0 | 0.00 | 0.02 | 0.02 | 82 | 1011.0 |
| 20260831024509 | 79 | 135 | 0.0 | 0.0 | 0.00 | 0.02 | 0.02 | 82 | 1011.0 |
| 20260831023015 | 79 | 135 | 0.0 | 0.0 | 0.00 | 0.02 | 0.02 | 82 | 1010.9 |
| 20260831021523 | 80 | 135 | 0.0 | 0.0 | 0.00 | 0.02 | 0.02 | 82 | 1011.0 |
| 20260831020027 | 80 | 135 | 0.0 | 0.0 | 0.00 | 0.02 | 0.02 | 82 | 1011.0 |
| 20260831014530 | 80 | 135 | 0.0 | 0.0 | 0.00 | 0.02 | 0.02 | 82 | 1010.9 |
| 20260831013012 | 81 | 135 | 0.0 | 0.0 | 0.00 | 0.02 | 0.02 | 81 | 1010.6 |
| 20260831011529 | 82 | 135 | 0.0 | 0.0 | 0.00 | 0.02 | 0.02 | 81 | 1010.7 |
| 20260831010014 | 82 | 135 | 0.0 | 0.0 | 0.00 | 0.02 | 0.02 | 81 | 1010.5 |
| 20260831004527 | 83 | 135 | 0.0 | 0.0 | 0.00 | 0.02 | 0.02 | 80 | 1010.7 |
| 20260831003024 | 83 | 135 | 0.0 | 0.0 | 0.00 | 0.02 | 0.02 | 80 | 1010.8 |
| 20260831001514 | 83 | 135 | 0.0 | 0.0 | 0.00 | 0.02 | 0.02 | 79 | 1010.8 |
| 20260831000018 | 83 | 135 | 0.0 | 0.0 | 0.00 | 0.02 | 0.02 | 79 | 1010.3 |
| 20260830234525 | 84 | 135 | 0.0 | 0.0 | 0.00 | 0.02 | 0.02 | 78 | 1010.5 |
| 20260830233027 | 84 | 304 | 0.0 | 0.0 | 0.00 | 0.02 | 0.02 | 77 | 1010.4 |
| 20260830231516 | 84 | 39 | 0.0 | 0.0 | 0.00 | 0.02 | 0.02 | 76 | 1010.3 |
| 20260830230024 | 84 | 40 | 0.0 | 0.9 | 0.00 | 0.02 | 0.02 | 74 | 1010.3 |
| 20260830224502 | 85 | 286 | 0.0 | 3.5 | 0.00 | 0.02 | 0.02 | 74 | 1010.2 |
| 20260830223007 | 84 | 261 | 0.0 | 2.6 | 0.00 | 0.02 | 0.02 | 75 | 1010.1 |
| 20260830221507 | 84 | 298 | 0.0 | 0.0 | 0.00 | 0.02 | 0.02 | 76 | 1010.3 |
| 20260830220014 | 84 | 184 | 0.0 | 1.7 | 0.00 | 0.02 | 0.02 | 77 | 1010.3 |
| 20260830214504 | 83 | 270 | 0.0 | 0.0 | 0.00 | 0.02 | 0.02 | 76 | 1010.3 |
| 20260830213003 | 82 | 254 | 0.0 | 1.7 | 0.00 | 0.02 | 0.02 | 76 | 1010.2 |
| 20260830211507 | 82 | 239 | 0.0 | 6.1 | 0.00 | 0.02 | 0.02 | 75 | 1010.3 |
| 20260830210018 | 82 | 229 | 0.0 | 2.6 | 0.00 | 0.02 | 0.02 | 75 | 1010.4 |
| 20260830204512 | 81 | 135 | 0.0 | 3.5 | 0.00 | 0.02 | 0.02 | 77 | 1010.6 |
| 20260830203008 | 81 | 285 | 0.0 | 0.0 | 0.00 | 0.02 | 0.02 | 78 | 1010.7 |
| 20260830201509 | 80 | 135 | 0.0 | 0.0 | 0.00 | 0.02 | 0.02 | 76 | 1011.1 |
| 20260830200003 | 80 | 135 | 0.0 | 5.2 | 0.00 | 0.02 | 0.02 | 76 | 1011.3 |
| 20260830194513 | 80 | 135 | 0.0 | 4.3 | 0.00 | 0.02 | 0.02 | 77 | 1011.2 |
| 20260830193017 | 80 | 135 | 0.0 | 3.5 | 0.00 | 0.02 | 0.02 | 73 | 1011.3 |
| 20260830191605 | 80 | 190 | 0.9 | 5.2 | 0.00 | 0.02 | 0.02 | 74 | 1011.5 |
| 20260830190023 | 80 | 135 | 0.0 | 2.6 | 0.00 | 0.02 | 0.02 | 74 | 1011.4 |
| 20260830184510 | 80 | 135 | 0.0 | 0.0 | 0.00 | 0.02 | 0.02 | 74 | 1011.3 |
| 20260830183013 | 80 | 135 | 0.0 | 0.0 | 0.00 | 0.02 | 0.02 | 74 | 1011.6 |
| 20260830181510 | 80 | 194 | 0.0 | 1.7 | 0.00 | 0.02 | 0.02 | 73 | 1011.7 |
| 20260830180033 | 80 | 135 | 0.0 | 1.7 | 0.00 | 0.02 | 0.02 | 73 | 1011.9 |
| 20260830174530 | 80 | 135 | 0.0 | 2.6 | 0.00 | 0.02 | 0.02 | 73 | 1012.1 |
| 20260830173014 | 79 | 135 | 0.0 | 3.5 | 0.00 | 0.02 | 0.02 | 76 | 1012.1 |
| 20260830171517 | 78 | 135 | 0.0 | 2.6 | 0.00 | 0.02 | 0.02 | 79 | 1012.2 |
| 20260830170022 | 77 | 135 | 0.0 | 2.6 | 0.01 | 0.02 | 0.02 | 82 | 1012.2 |
| 20260830164519 | 76 | 135 | 0.0 | 0.9 | 0.01 | 0.02 | 0.02 | 83 | 1012.3 |
| 20260830163032 | 76 | 152 | 0.0 | 0.9 | 0.01 | 0.02 | 0.02 | 85 | 1012.4 |
| 20260830161510 | 75 | 152 | 0.0 | 0.9 | 0.01 | 0.02 | 0.02 | 83 | 1012.5 |
| 20260830160030 | 75 | 152 | 0.0 | 0.9 | 0.01 | 0.01 | 0.01 | 80 | 1012.9 |
| 20260830154528 | 76 | 135 | 0.0 | 1.7 | 0.01 | 0.03 | 0.01 | 80 | 1012.7 |
| 20260830153024 | 76 | 135 | 0.0 | 1.7 | 0.01 | 0.07 | 0.01 | 80 | 1012.4 |
| 20260830151526 | 77 | 135 | 0.0 | 0.0 | 0.01 | 0.07 | 0.01 | 78 | 1012.5 |
| 20260830150021 | 77 | 135 | 0.0 | 0.9 | 0.00 | 0.08 | 0.00 | 75 | 1012.2 |
| 20260830144524 | 77 | 135 | 0.0 | 0.9 | 0.00 | 0.09 | 0.00 | 73 | 1011.9 |
| 20260830143017 | 77 | 135 | 0.0 | 1.7 | 0.00 | 0.22 | 0.00 | 72 | 1011.9 |
| 20260830141523 | 77 | 135 | 0.0 | 2.6 | 0.00 | 0.22 | 0.00 | 71 | 1011.9 |
| 20260830140024 | 77 | 135 | 0.9 | 3.5 | 0.00 | 0.22 | 0.00 | 70 | 1011.6 |
| 20260830134508 | 77 | 135 | 0.0 | 4.3 | 0.00 | 0.22 | 0.00 | 70 | 1011.6 |
| 20260830133004 | 77 | 135 | 0.0 | 4.3 | 0.00 | 0.22 | 0.00 | 69 | 1011.3 |
| 20260830131506 | 77 | 135 | 0.0 | 8.7 | 0.00 | 0.22 | 0.00 | 70 | 1011.0 |
| 20260830130004 | 77 | 135 | 0.0 | 5.2 | 0.00 | 0.22 | 0.00 | 70 | 1011.2 |
| 20260830124518 | 76 | 135 | 0.9 | 6.1 | 0.00 | 0.22 | 0.00 | 69 | 1011.4 |
| 20260830123029 | 76 | 297 | 0.9 | 3.5 | 0.00 | 0.22 | 0.00 | 70 | 1011.4 |
| 20260830121508 | 76 | 358 | 0.0 | 5.2 | 0.00 | 0.22 | 0.00 | 70 | 1011.4 |
| 20260830120013 | 76 | 306 | 0.0 | 3.5 | 0.00 | 0.22 | 0.00 | 70 | 1011.2 |
| 20260830114512 | 76 | 119 | 0.0 | 6.1 | 0.00 | 0.22 | 0.00 | 69 | 1011.1 |
| 20260830113013 | 76 | 22 | 0.9 | 6.1 | 0.00 | 0.22 | 0.00 | 69 | 1011.1 |
| 20260830111506 | 76 | 327 | 0.0 | 4.3 | 0.00 | 0.22 | 0.00 | 70 | 1010.8 |
| 20260830110012 | 76 | 88 | 0.0 | 2.6 | 0.00 | 0.22 | 0.00 | 70 | 1010.9 |
| 20260830104513 | 76 | 320 | 0.0 | 5.2 | 0.00 | 0.22 | 0.00 | 70 | 1010.9 |
| 20260830103018 | 76 | 343 | 0.0 | 4.3 | 0.00 | 0.22 | 0.00 | 71 | 1011.1 |
| 20260830101523 | 76 | 175 | 0.0 | 2.6 | 0.00 | 0.22 | 0.00 | 71 | 1011.1 |
| 20260830100018 | 75 | 105 | 0.0 | 6.1 | 0.00 | 0.22 | 0.00 | 72 | 1011.0 |
| 20260830094509 | 75 | 300 | 0.0 | 6.1 | 0.00 | 0.22 | 0.00 | 72 | 1011.1 |
| 20260830093020 | 75 | 327 | 0.0 | 2.6 | 0.00 | 0.22 | 0.00 | 73 | 1011.1 |
| 20260830091523 | 75 | 325 | 0.0 | 4.3 | 0.00 | 0.22 | 0.00 | 73 | 1011.2 |
| 20260830090030 | 75 | 19 | 0.0 | 1.7 | 0.00 | 0.22 | 0.00 | 72 | 1011.2 |
| 20260830084525 | 76 | 313 | 0.0 | 5.2 | 0.00 | 0.22 | 0.00 | 73 | 1011.3 |
| 20260830083013 | 76 | 330 | 0.9 | 3.5 | 0.00 | 0.22 | 0.00 | 73 | 1011.2 |
| 20260830081530 | 76 | 300 | 0.9 | 5.2 | 0.00 | 0.22 | 0.00 | 73 | 1011.0 |
| 20260830080021 | 76 | 218 | 0.9 | 8.7 | 0.00 | 0.22 | 0.00 | 73 | 1011.0 |
| 20260830074524 | 76 | 350 | 0.0 | 3.5 | 0.00 | 0.22 | 0.00 | 74 | 1011.1 |
| 20260830073014 | 75 | 8 | 0.0 | 1.7 | 0.00 | 0.22 | 0.00 | 74 | 1011.1 |
| 20260830071514 | 75 | 90 | 0.0 | 1.7 | 0.00 | 0.22 | 0.00 | 74 | 1011.1 |
| 20260830070024 | 75 | 317 | 0.0 | 2.6 | 0.00 | 0.22 | 0.00 | 75 | 1011.1 |
| 20260830064524 | 75 | 285 | 0.0 | 3.5 | 0.00 | 0.22 | 0.00 | 75 | 1011.2 |
| 20260830063025 | 75 | 346 | 0.0 | 4.3 | 0.00 | 0.22 | 0.00 | 76 | 1011.3 |
| 20260830061522 | 75 | 4 | 0.0 | 1.7 | 0.00 | 0.22 | 0.00 | 76 | 1011.3 |